| time (UTC) | temp F | wind direction | speed knots | gust knots | rain 1hr in | rain 24hr in | rain mn in | humidity % | barometer mb |
| 20260905201507 | 70 | 15 | 3.5 | 11.3 | 0.00 | 0.00 | 0.00 | 80 | 1008.2 |
| 20260905200052 | 70 | 63 | 7.0 | 11.3 | 0.00 | 0.00 | 0.00 | 79 | 1008.1 |
| 20260905194505 | 70 | 79 | 4.3 | 13.0 | 0.00 | 0.00 | 0.00 | 79 | 1008.1 |
| 20260905193043 | 70 | 79 | 4.3 | 11.3 | 0.00 | 0.00 | 0.00 | 80 | 1008.2 |
| 20260905191507 | 71 | 72 | 6.1 | 12.2 | 0.00 | 0.00 | 0.00 | 77 | 1008.1 |
| 20260905190052 | 71 | 31 | 4.3 | 13.0 | 0.00 | 0.00 | 0.00 | 79 | 1008.2 |
| 20260905184513 | 70 | 76 | 5.2 | 12.2 | 0.00 | 0.00 | 0.00 | 79 | 1008.2 |
| 20260905183057 | 71 | 21 | 5.2 | 13.9 | 0.00 | 0.00 | 0.00 | 78 | 1008.3 |
| 20260905181520 | 72 | 57 | 5.2 | 12.2 | 0.00 | 0.00 | 0.00 | 77 | 1008.3 |
| 20260905180053 | 71 | 50 | 4.3 | 13.0 | 0.00 | 0.00 | 0.00 | 78 | 1008.3 |
| 20260905174516 | 71 | 77 | 4.3 | 11.3 | 0.00 | 0.00 | 0.00 | 77 | 1008.2 |
| 20260905154519 | 72 | 67 | 4.3 | 11.3 | 0.00 | 0.00 | 0.00 | 76 | 1007.6 |
| 20260905153059 | 73 | 53 | 4.3 | 11.3 | 0.00 | 0.00 | 0.00 | 75 | 1007.4 |
| 20260905151509 | 73 | 42 | 5.2 | 10.4 | 0.00 | 0.00 | 0.00 | 74 | 1007.5 |
| 20260905150040 | 73 | 81 | 5.2 | 11.3 | 0.00 | 0.00 | 0.00 | 76 | 1007.3 |
| 20260905144503 | 72 | 77 | 3.5 | 9.6 | 0.00 | 0.00 | 0.00 | 78 | 1007.4 |
| 20260905143041 | 72 | 51 | 4.3 | 10.4 | 0.00 | 0.00 | 0.00 | 77 | 1007.6 |
| 20260905141602 | 71 | 16 | 3.5 | 9.6 | 0.00 | 0.00 | 0.00 | 79 | 1007.5 |
| 20260905140028 | 71 | 48 | 3.5 | 7.8 | 0.00 | 0.00 | 0.00 | 79 | 1007.7 |
| 20260905134610 | 71 | 39 | 3.5 | 8.7 | 0.00 | 0.00 | 0.00 | 80 | 1007.6 |
| 20260905133036 | 71 | 37 | 3.5 | 7.8 | 0.00 | 0.00 | 0.00 | 80 | 1007.6 |
| 20260905131505 | 70 | 21 | 4.3 | 9.6 | 0.00 | 0.00 | 0.00 | 80 | 1007.5 |
| 20260905130050 | 70 | 79 | 4.3 | 8.7 | 0.00 | 0.00 | 0.00 | 81 | 1007.5 |
| 20260905124509 | 69 | 34 | 3.5 | 8.7 | 0.00 | 0.00 | 0.00 | 82 | 1007.2 |
| 20260905123043 | 69 | 37 | 5.2 | 11.3 | 0.00 | 0.00 | 0.00 | 82 | 1007.0 |
| 20260905121509 | 68 | 23 | 1.7 | 9.6 | 0.00 | 0.00 | 0.00 | 83 | 1006.8 |
| 20260905120048 | 67 | 23 | 4.3 | 8.7 | 0.00 | 0.00 | 0.00 | 84 | 1006.8 |
| 20260905114516 | 66 | 14 | 1.7 | 7.8 | 0.00 | 0.00 | 0.00 | 86 | 1006.9 |
| 20260905113101 | 66 | 10 | 3.5 | 8.7 | 0.00 | 0.00 | 0.00 | 86 | 1006.8 |
| 20260905111551 | 65 | 45 | 1.7 | 8.7 | 0.00 | 0.00 | 0.00 | 87 | 1006.7 |
| 20260905110004 | 65 | 8 | 3.5 | 9.6 | 0.00 | 0.00 | 0.00 | 88 | 1006.7 |
| 20260905104534 | 64 | 29 | 3.5 | 9.6 | 0.00 | 0.00 | 0.00 | 88 | 1006.6 |
| 20260905103002 | 64 | 8 | 3.5 | 7.8 | 0.00 | 0.00 | 0.00 | 88 | 1006.4 |
| 20260905101544 | 64 | 33 | 3.5 | 8.7 | 0.00 | 0.00 | 0.00 | 88 | 1006.1 |
| 20260905100018 | 64 | 2 | 4.3 | 9.6 | 0.00 | 0.00 | 0.00 | 88 | 1006.0 |
| 20260905094550 | 65 | 3 | 4.3 | 9.6 | 0.00 | 0.00 | 0.00 | 87 | 1005.9 |
| 20260905093009 | 65 | 38 | 4.3 | 7.8 | 0.00 | 0.00 | 0.00 | 88 | 1005.9 |
| 20260905091539 | 65 | 25 | 3.5 | 9.6 | 0.00 | 0.00 | 0.00 | 87 | 1006.0 |
| 20260905090110 | 65 | 23 | 3.5 | 7.8 | 0.00 | 0.00 | 0.00 | 87 | 1006.1 |
| 20260905084529 | 65 | 1 | 2.6 | 7.8 | 0.00 | 0.00 | 0.00 | 87 | 1006.1 |
| 20260905083057 | 66 | 15 | 2.6 | 8.7 | 0.00 | 0.00 | 0.00 | 86 | 1006.1 |
| 20260905081529 | 66 | 35 | 2.6 | 7.8 | 0.00 | 0.00 | 0.00 | 86 | 1006.1 |
| 20260905080003 | 66 | 18 | 2.6 | 9.6 | 0.00 | 0.00 | 0.00 | 86 | 1006.0 |
| 20260905074545 | 66 | 10 | 1.7 | 6.1 | 0.00 | 0.00 | 0.00 | 85 | 1006.1 |
| 20260905070031 | 66 | 16 | 3.5 | 9.6 | 0.00 | 0.00 | 0.00 | 84 | 1006.5 |
| 20260905064502 | 67 | 351 | 2.6 | 7.0 | 0.00 | 0.00 | 0.00 | 84 | 1006.6 |
| 20260905063042 | 68 | 8 | 1.7 | 7.0 | 0.00 | 0.00 | 0.00 | 83 | 1006.9 |
| 20260905061511 | 68 | 29 | 1.7 | 7.0 | 0.00 | 0.00 | 0.00 | 81 | 1006.9 |
| 20260905060053 | 68 | 335 | 0.9 | 5.2 | 0.00 | 0.00 | 0.00 | 82 | 1006.9 |
| 20260905054539 | 68 | 357 | 0.9 | 5.2 | 0.00 | 0.00 | 0.00 | 82 | 1006.9 |
| 20260905053140 | 68 | 9 | 0.9 | 5.2 | 0.00 | 0.00 | 0.00 | 82 | 1006.9 |
| 20260905051519 | 68 | 18 | 0.9 | 4.3 | 0.00 | 0.00 | 0.00 | 82 | 1006.8 |
| 20260905050051 | 68 | 5 | 0.0 | 3.5 | 0.00 | 0.00 | 0.00 | 82 | 1007.2 |
| 20260905044522 | 68 | 341 | 0.9 | 3.5 | 0.00 | 0.00 | 0.00 | 82 | 1007.1 |
| 20260905043100 | 68 | 341 | 0.0 | 4.3 | 0.00 | 0.00 | 0.00 | 83 | 1007.1 |
| 20260905041533 | 68 | 337 | 0.0 | 3.5 | 0.00 | 0.00 | 0.00 | 85 | 1007.3 |
| 20260905040110 | 68 | 336 | 0.9 | 3.5 | 0.00 | 0.00 | 0.00 | 87 | 1007.1 |
| 20260905034542 | 68 | 333 | 0.0 | 0.9 | 0.00 | 0.00 | 0.00 | 88 | 1007.2 |
| 20260905030033 | 70 | 166 | 0.0 | 0.0 | 0.00 | 0.00 | 0.00 | 92 | 1006.7 |
| 20260905024510 | 70 | 164 | 0.0 | 0.0 | 0.00 | 0.00 | 0.00 | 92 | 1006.6 |
| 20260905023041 | 70 | 164 | 0.0 | 0.0 | 0.00 | 0.00 | 0.00 | 92 | 1006.7 |
| 20260905021506 | 70 | 179 | 0.0 | 0.0 | 0.00 | 0.00 | 0.00 | 92 | 1006.6 |
| 20260905020036 | 70 | 179 | 0.0 | 0.0 | 0.00 | 0.00 | 0.00 | 92 | 1006.9 |
| 20260905014501 | 70 | 179 | 0.0 | 0.0 | 0.00 | 0.00 | 0.00 | 91 | 1007.1 |
| 20260905013047 | 70 | 179 | 0.0 | 0.0 | 0.00 | 0.00 | 0.00 | 91 | 1007.2 |
| 20260905011515 | 71 | 179 | 0.0 | 0.0 | 0.00 | 0.00 | 0.00 | 90 | 1007.3 |
| 20260905004533 | 71 | 179 | 0.0 | 5.2 | 0.00 | 0.00 | 0.00 | 91 | 1007.4 |
| 20260905003104 | 72 | 146 | 0.9 | 2.6 | 0.00 | 0.00 | 0.00 | 91 | 1007.1 |
| 20260905001535 | 72 | 134 | 1.7 | 5.2 | 0.00 | 0.00 | 0.00 | 91 | 1007.0 |
| 20260905000000 | 71 | 173 | 0.0 | 0.0 | 0.00 | 0.00 | 0.00 | 90 | 1006.6 |
| 20260904234531 | 72 | 173 | 0.0 | 0.9 | 0.00 | 0.00 | 0.00 | 90 | 1006.6 |
| 20260904224520 | 74 | 143 | 2.6 | 6.1 | 0.00 | 0.00 | 0.00 | 87 | 1006.6 |
| 20260904223103 | 75 | 119 | 1.7 | 5.2 | 0.00 | 0.00 | 0.00 | 87 | 1006.4 |
| 20260904221530 | 76 | 176 | 0.0 | 2.6 | 0.00 | 0.00 | 0.00 | 83 | 1006.1 |
| 20260904220113 | 78 | 174 | 0.9 | 3.5 | 0.00 | 0.00 | 0.00 | 81 | 1006.2 |
| 20260904214542 | 78 | 173 | 0.9 | 4.3 | 0.00 | 0.00 | 0.00 | 82 | 1006.0 |
| 20260904213004 | 78 | 189 | 0.9 | 5.2 | 0.00 | 0.00 | 0.00 | 82 | 1005.9 |
| 20260904211534 | 78 | 133 | 0.9 | 4.3 | 0.00 | 0.00 | 0.00 | 81 | 1006.1 |
| 20260904210003 | 78 | 196 | 2.6 | 5.2 | 0.00 | 0.00 | 0.00 | 80 | 1006.2 |
| 20260904204539 | 78 | 168 | 0.0 | 5.2 | 0.00 | 0.00 | 0.00 | 80 | 1006.4 |